KB5DPX Weather Reports


Display with metric or nautical units.
time (UTC)temp
F
wind
direction
speed
MPH
gust
MPH
rain 1hr
in
rain 24hr
in
rain mn
in
humidity
%
barometer
mb
20260505175728 47 286 13.0 19.0 0.00 0.14 0.00 61 1006.9
20260505175242 46 284 14.0 19.0 0.00 0.14 0.00 64 1006.8
20260505174726 46 304 12.0 19.0 0.00 0.14 0.00 63 1006.8
20260505174235 46 292 14.0 19.0 0.00 0.14 0.00 64 1006.7
20260505173739 46 276 11.0 19.0 0.00 0.14 0.00 66 1006.6
20260505173242 46 290 12.0 20.0 0.00 0.14 0.00 65 1006.6
20260505172739 46 278 12.0 20.0 0.00 0.14 0.00 65 1006.7
20260505172244 46 292 13.0 21.0 0.00 0.14 0.00 63 1006.6
20260505171729 46 279 13.0 20.0 0.00 0.14 0.00 64 1006.6
20260505171243 46 271 15.0 20.0 0.00 0.14 0.00 64 1006.6
20260505170743 46 282 13.0 19.0 0.00 0.14 0.00 64 1006.5
20260505170226 46 261 11.0 20.0 0.00 0.14 0.00 65 1006.5
20260505165747 46 286 10.0 16.0 0.00 0.14 0.00 65 1006.5
20260505165232 46 296 11.0 16.0 0.00 0.14 0.00 64 1006.4
20260505164744 46 287 9.0 16.0 0.00 0.14 0.00 66 1006.4
20260505164227 46 281 8.0 16.0 0.00 0.14 0.00 65 1006.3
20260505163739 46 290 12.0 16.0 0.00 0.14 0.00 65 1006.4
20260505163225 46 295 12.0 17.0 0.00 0.14 0.00 67 1006.4
20260505162748 46 296 12.0 17.0 0.00 0.14 0.00 65 1006.3
20260505162234 46 289 10.0 17.0 0.00 0.14 0.00 67 1006.4
20260505161738 46 298 9.0 18.0 0.00 0.14 0.00 68 1006.4
20260505161224 45 271 13.0 18.0 0.00 0.14 0.00 67 1006.4
20260505160738 45 300 9.0 16.0 0.00 0.14 0.00 66 1006.4
20260505160225 45 298 10.0 17.0 0.00 0.14 0.00 68 1006.4
20260505153249 44 294 8.0 12.0 0.00 0.14 0.00 75 1006.5
20260505152727 44 296 7.0 14.0 0.00 0.14 0.00 76 1006.5
20260505152240 44 290 8.0 14.0 0.00 0.14 0.00 77 1006.5
20260505151725 43 304 10.0 13.0 0.00 0.14 0.00 77 1006.5
20260505151239 43 294 9.0 13.0 0.00 0.14 0.00 77 1006.5
20260505150722 43 284 8.0 13.0 0.00 0.14 0.00 77 1006.4
20260505150237 43 298 8.0 13.0 0.00 0.14 0.00 78 1006.2
20260505140240 42 284 4.0 10.0 0.00 0.14 0.00 80 1005.6
20260505130221 42 281 6.0 10.0 0.00 0.14 0.00 79 1004.6
20260505124746 42 280 6.0 9.0 0.00 0.14 0.00 79 1004.4
20260505124232 42 286 6.0 10.0 0.00 0.14 0.00 79 1004.4
20260505123746 42 289 6.0 12.0 0.00 0.14 0.00 79 1004.2
20260505123226 42 285 6.0 12.0 0.00 0.14 0.00 78 1004.3
20260505122747 42 278 8.0 14.0 0.00 0.14 0.00 78 1004.3
20260505122247 42 274 9.0 14.0 0.00 0.14 0.00 78 1004.3
20260505121731 43 291 7.0 11.0 0.00 0.14 0.00 77 1004.3
20260505121246 43 282 8.0 11.0 0.00 0.14 0.00 77 1004.1
20260505120732 42 277 8.0 11.0 0.00 0.14 0.00 77 1004.0
20260505120249 42 274 4.0 9.0 0.00 0.14 0.00 77 1004.0
20260505115726 42 274 6.0 11.0 0.00 0.15 0.00 77 1004.0
20260505115238 42 271 6.0 11.0 0.00 0.15 0.00 77 1003.9
20260505114721 42 275 7.0 10.0 0.00 0.15 0.00 78 1003.8
20260505114236 42 276 5.0 11.0 0.00 0.15 0.00 79 1003.8
20260505113744 42 282 1.0 8.0 0.00 0.15 0.00 80 1003.9
20260505113248 41 284 0.0 0.0 0.00 0.15 0.00 81 1003.6
20260505112745 41 284 0.0 0.0 0.00 0.15 0.00 82 1003.7
20260505112229 40 284 0.0 0.0 0.00 0.15 0.00 83 1003.6
20260505111737 40 284 0.0 0.0 0.00 0.15 0.00 84 1003.6
20260505111239 39 284 0.0 0.0 0.00 0.15 0.00 84 1003.6
20260505110744 39 284 0.0 0.0 0.00 0.15 0.00 85 1003.6
20260505110249 39 284 0.0 0.0 0.00 0.15 0.00 85 1003.5
20260505101740 39 284 0.0 0.0 0.00 0.15 0.00 83 1002.7
20260505101225 40 285 0.0 4.0 0.00 0.15 0.00 83 1002.5
20260505100741 40 285 0.0 5.0 0.00 0.15 0.00 83 1002.5
20260505100244 40 285 3.0 7.0 0.00 0.15 0.00 82 1002.5
20260505095742 40 285 4.0 8.0 0.00 0.15 0.00 82 1002.5
20260505095246 40 285 3.0 8.0 0.00 0.15 0.00 82 1002.4
20260505094732 40 286 5.0 9.0 0.00 0.15 0.00 82 1002.4
20260505094247 40 291 4.0 8.0 0.00 0.15 0.00 82 1002.3
20260505093732 40 292 0.0 0.0 0.00 0.15 0.00 81 1002.1
20260505093247 40 292 0.0 0.0 0.00 0.15 0.00 81 1002.1
20260505092726 40 292 0.0 0.0 0.00 0.15 0.00 81 1002.0
20260505092236 40 292 0.0 0.0 0.00 0.15 0.00 81 1002.1
20260505091742 41 292 0.0 0.0 0.00 0.15 0.00 81 1002.1
20260505091249 41 292 0.0 0.0 0.00 0.15 0.00 81 1002.0
20260505090736 41 292 0.0 0.0 0.00 0.15 0.00 81 1002.0
20260505090223 41 292 0.0 0.0 0.00 0.15 0.00 81 1002.1
20260505085747 41 292 0.0 0.0 0.00 0.15 0.00 80 1002.0
20260505085233 41 292 0.0 0.0 0.00 0.15 0.00 80 1001.9
20260505084748 41 292 0.0 0.0 0.00 0.15 0.00 80 1001.9
20260505084251 42 292 0.0 8.0 0.00 0.15 0.00 79 1002.0
20260505083735 42 292 1.0 9.0 0.00 0.15 0.00 78 1001.9
20260505083241 42 290 4.0 9.0 0.00 0.15 0.00 77 1001.8
20260505082739 42 291 3.0 12.0 0.00 0.15 0.00 77 1001.7
20260505082225 43 291 5.0 11.0 0.00 0.15 0.00 76 1001.7
20260505081740 43 289 6.0 13.0 0.00 0.15 0.00 75 1001.7
20260505081228 43 306 8.0 13.0 0.00 0.15 0.00 74 1001.5
20260505080744 43 296 7.0 11.0 0.00 0.15 0.00 74 1001.6
20260505080223 43 292 7.0 12.0 0.00 0.15 0.00 74 1001.6
20260505075749 43 296 6.0 12.0 0.00 0.15 0.00 75 1001.6
20260505075234 43 287 5.0 9.0 0.00 0.15 0.00 74 1001.5
20260505074738 43 289 3.0 8.0 0.00 0.15 0.00 74 1001.5
20260505074222 44 291 3.0 9.0 0.00 0.15 0.00 73 1001.5
20260505073737 44 288 5.0 9.0 0.00 0.15 0.00 72 1001.4
20260505073224 44 296 3.0 9.0 0.00 0.15 0.00 72 1001.5
20260505072745 44 311 3.0 9.0 0.00 0.15 0.00 71 1001.4
20260505072249 45 315 4.0 9.0 0.00 0.15 0.00 69 1001.3
20260505071734 45 317 6.0 9.0 0.00 0.15 0.00 67 1001.2
20260505071239 45 313 4.0 9.0 0.00 0.15 0.00 66 1001.2
20260505070742 45 304 5.0 9.0 0.00 0.15 0.00 65 1001.2
20260505070248 46 309 6.0 11.0 0.00 0.15 0.00 64 1001.1
20260505065724 46 325 7.0 15.0 0.00 0.15 0.00 62 1001.1
20260505065240 46 311 7.0 15.0 0.00 0.15 0.00 62 1001.1
20260505064724 46 320 7.0 11.0 0.00 0.15 0.00 62 1001.2
20260505064235 46 327 7.0 13.0 0.00 0.15 0.00 62 1001.3
20260505063740 46 329 8.0 15.0 0.00 0.15 0.00 63 1001.3
20260505063247 46 315 9.0 13.0 0.00 0.15 0.00 64 1001.2
20260505062724 46 317 8.0 17.0 0.00 0.15 0.00 64 1001.1
20260505062240 46 319 10.0 17.0 0.00 0.15 0.00 64 1001.1
20260505061725 46 317 6.0 11.0 0.00 0.15 0.00 64 1001.1
20260505061238 46 321 8.0 11.0 0.00 0.15 0.00 64 1001.1
20260505060741 46 326 6.0 12.0 0.00 0.15 0.00 63 1001.1
20260505060247 46 311 8.0 13.0 0.00 0.15 0.00 65 1001.2
20260505055744 46 313 6.0 13.0 0.00 0.15 0.00 65 1001.3
20260505055228 46 329 7.0 11.0 0.00 0.15 0.00 66 1001.2
20260505054743 47 325 5.0 9.0 0.00 0.15 0.00 67 1001.1
20260505054229 47 323 5.0 9.0 0.00 0.15 0.00 67 1001.0
20260505053743 47 327 5.0 9.0 0.00 0.15 0.00 67 1000.9
20260505053244 47 329 5.0 10.0 0.00 0.15 0.00 67 1000.9
20260505052723 47 328 4.0 8.0 0.00 0.15 0.00 67 1000.9
20260505052236 47 333 4.0 9.0 0.00 0.15 0.00 67 1000.7
20260505051743 47 344 5.0 9.0 0.00 0.15 0.00 67 1000.7
20260505051228 47 341 2.0 9.0 0.00 0.15 0.00 68 1000.6
20260505050739 47 346 2.0 8.0 0.00 0.15 0.00 68 1000.4
20260505050243 47 350 0.0 0.0 0.00 0.15 0.00 69 1000.3
20260505041736 47 360 3.0 8.0 0.00 0.15 0.00 72 999.7
20260505041239 47 360 5.0 9.0 0.00 0.15 0.00 72 999.6
20260505040744 47 360 4.0 10.0 0.00 0.15 0.00 73 999.6
20260505040249 47 360 6.0 10.0 0.00 0.15 0.00 75 999.5
20260505035727 47 10 4.0 6.0 0.00 0.15 0.15 77 999.5
20260505035241 48 9 0.0 8.0 0.00 0.15 0.15 77 999.4
20260505034727 47 10 4.0 9.0 0.00 0.15 0.15 77 999.3
20260505034241 47 12 6.0 9.0 0.00 0.15 0.15 80 999.3
20260505033743 47 15 0.0 0.0 0.00 0.15 0.15 81 999.3
20260505033249 47 16 0.0 8.0 0.00 0.15 0.15 82 999.1
20260505032747 47 26 2.0 8.0 0.00 0.15 0.15 83 999.2
20260505032230 47 360 3.0 8.0 0.00 0.15 0.15 86 999.3
20260505031744 47 22 0.0 0.0 0.00 0.15 0.15 87 999.0
20260505031229 47 34 0.0 0.0 0.00 0.15 0.15 88 999.0
20260505030744 47 34 0.0 5.0 0.00 0.15 0.15 88 999.0
20260505030228 47 13 2.0 8.0 0.00 0.15 0.15 88 998.8
20260505025750 47 23 2.0 9.0 0.00 0.15 0.15 87 998.5
20260505025235 47 61 4.0 9.0 0.00 0.15 0.15 87 998.1
20260505024740 47 65 0.0 14.0 0.00 0.15 0.15 87 998.3
20260505024226 47 44 6.0 14.0 0.00 0.15 0.15 87 998.0
20260505023740 47 32 6.0 10.0 0.00 0.15 0.15 87 998.2
20260505023226 47 45 1.0 8.0 0.00 0.15 0.15 87 998.1
20260505022732 47 35 0.0 8.0 0.00 0.15 0.15 86 998.3
20260505022247 47 53 2.0 9.0 0.00 0.15 0.15 87 998.1
20260505021750 48 84 5.0 9.0 0.00 0.15 0.15 86 998.1
20260505021234 48 55 0.0 10.0 0.00 0.15 0.15 86 998.1
20260505020740 48 61 5.0 11.0 0.00 0.15 0.15 86 998.1
20260505020246 48 61 0.0 11.0 0.00 0.15 0.15 86 997.9
20260505015724 48 49 6.0 14.0 0.00 0.19 0.15 86 997.8
20260505015238 48 59 7.0 14.0 0.00 0.19 0.15 85 997.5
20260505014725 48 68 5.0 11.0 0.00 0.19 0.15 85 997.8
20260505014240 48 38 7.0 13.0 0.00 0.19 0.15 85 997.7
20260505013723 48 51 6.0 13.0 0.00 0.19 0.15 84 997.8
20260505013238 48 31 7.0 16.0 0.00 0.19 0.15 83 997.3
20260505012735 48 59 8.0 16.0 0.00 0.19 0.15 81 997.4
20260505012241 47 46 8.0 14.0 0.01 0.19 0.15 79 996.8
20260505011728 47 39 6.0 12.0 0.01 0.19 0.15 80 996.8
20260505011242 46 55 2.0 7.0 0.01 0.19 0.15 80 996.8
20260505010727 46 66 0.0 0.0 0.02 0.19 0.15 80 996.9
20260505010222 46 275 0.0 0.0 0.02 0.19 0.15 81 997.2
20260505005746 46 275 0.0 0.0 0.02 0.19 0.15 82 996.8
20260505005233 46 275 0.0 0.0 0.03 0.19 0.15 83 996.6
20260505004740 46 275 0.0 0.0 0.04 0.19 0.15 84 996.4
20260505004227 46 275 0.0 0.0 0.05 0.19 0.15 85 996.3
20260505003725 46 275 0.0 0.0 0.05 0.19 0.15 86 996.1
20260505003241 46 275 0.0 0.0 0.06 0.19 0.15 87 996.1
20260505002722 46 275 0.0 8.0 0.07 0.19 0.15 87 996.4
20260505002237 46 275 0.0 8.0 0.07 0.18 0.14 87 996.4
20260505001725 47 290 3.0 8.0 0.08 0.18 0.14 87 997.0
20260505001235 47 288 4.0 9.0 0.09 0.18 0.14 87 997.0
20260505000724 47 287 6.0 12.0 0.09 0.17 0.13 87 997.0
20260505000237 47 294 6.0 12.0 0.10 0.17 0.13 87 997.0
20260504235736 47 285 8.0 12.0 0.12 0.31 0.13 86 996.6
20260504235225 47 281 7.0 14.0 0.11 0.30 0.12 86 996.5
20260504234742 48 282 9.0 14.0 0.09 0.28 0.10 85 996.8
20260504234230 48 292 6.0 11.0 0.09 0.28 0.10 84 996.5
20260504233746 48 296 7.0 14.0 0.09 0.28 0.10 83 996.3
20260504233247 49 311 9.0 15.0 0.08 0.27 0.09 81 996.1
20260504232746 50 304 9.0 15.0 0.07 0.26 0.08 78 996.3
20260504232235 51 313 11.0 14.0 0.06 0.25 0.07 77 996.0
20260504231724 52 311 7.0 11.0 0.05 0.24 0.06 75 995.8
20260504231237 52 293 8.0 19.0 0.04 0.23 0.05 72 995.8
20260504230725 54 300 10.0 20.0 0.03 0.22 0.04 69 995.8
20260504230242 56 311 12.0 23.0 0.02 0.21 0.03 62 995.6
20260504225741 59 311 14.0 26.0 0.00 0.19 0.01 55 995.5
20260504225225 65 294 17.0 26.0 0.00 0.19 0.01 49 994.7
20260504224737 67 224 11.0 23.0 0.00 0.19 0.01 50 994.0
20260504224243 67 215 16.0 23.0 0.00 0.19 0.01 48 993.8
20260504223731 67 215 9.0 21.0 0.00 0.19 0.01 48 993.6
20260504223246 67 192 15.0 22.0 0.00 0.19 0.01 48 993.7
20260504222727 67 216 13.0 25.0 0.00 0.19 0.01 48 993.5
20260504222222 68 200 13.0 25.0 0.00 0.19 0.01 47 993.6
20260504221740 68 221 15.0 31.0 0.00 0.19 0.01 46 993.7
20260504221245 69 202 17.0 31.0 0.00 0.19 0.01 43 993.7
20260504220733 70 227 17.0 34.0 0.00 0.19 0.01 42 993.6
20260504220242 70 225 19.0 34.0 0.00 0.19 0.01 40 993.4
20260504215723 70 231 21.0 30.0 0.00 0.19 0.01 39 993.1
20260504215240 70 225 19.0 30.0 0.00 0.19 0.01 39 993.2
20260504214730 71 223 15.0 26.0 0.00 0.19 0.01 39 993.2
20260504214246 71 228 14.0 26.0 0.00 0.19 0.01 39 993.2
20260504213732 71 229 15.0 22.0 0.00 0.19 0.01 39 993.2
20260504213249 71 216 13.0 27.0 0.00 0.19 0.01 39 993.1
20260504212746 71 231 18.0 28.0 0.00 0.19 0.01 38 993.1
20260504212232 71 205 19.0 28.0 0.00 0.19 0.01 38 993.2
20260504211741 71 242 19.0 30.0 0.00 0.19 0.01 37 993.3
20260504211228 72 254 17.0 30.0 0.00 0.19 0.01 37 993.2
20260504210723 72 217 18.0 30.0 0.00 0.19 0.01 37 993.1
20260504210238 72 208 17.0 27.0 0.00 0.19 0.01 37 993.2
20260504205737 71 238 17.0 24.0 0.00 0.19 0.01 38 993.2
20260504205224 71 251 11.0 28.0 0.00 0.19 0.01 39 993.2
20260504204722 71 229 17.0 28.0 0.00 0.19 0.01 39 993.3
20260504204234 70 226 14.0 28.0 0.00 0.19 0.01 38 993.3
20260504203742 70 217 13.0 28.0 0.00 0.19 0.01 38 993.4
20260504203250 70 232 15.0 28.0 0.00 0.19 0.01 38 993.3
20260504202728 70 228 11.0 26.0 0.00 0.19 0.01 38 993.3
20260504202244 70 186 17.0 28.0 0.00 0.19 0.01 38 993.4
20260504201733 70 211 17.0 28.0 0.00 0.19 0.01 39 993.4
20260504201248 70 240 16.0 32.0 0.00 0.19 0.01 38 993.4
20260504200750 70 229 19.0 32.0 0.00 0.19 0.01 37 993.4
20260504200237 70 215 18.0 24.0 0.00 0.19 0.01 37 993.5
20260504195736 71 212 16.0 31.0 0.00 0.19 0.01 38 993.5
20260504195243 71 218 17.0 31.0 0.00 0.19 0.01 37 993.4
20260504194730 71 234 13.0 28.0 0.00 0.19 0.01 38 993.5
20260504194246 70 242 14.0 28.0 0.00 0.19 0.01 37 993.5
20260504193733 70 236 12.0 30.0 0.00 0.19 0.01 37 993.6
20260504193248 70 208 20.0 30.0 0.00 0.19 0.01 36 993.6
20260504192742 70 210 11.0 26.0 0.00 0.19 0.01 37 993.6
20260504192246 70 234 18.0 26.0 0.00 0.19 0.01 36 993.6
20260504191734 70 221 15.0 24.0 0.00 0.19 0.01 36 993.6
20260504191241 71 211 16.0 31.0 0.00 0.19 0.01 36 993.8
20260504190726 71 205 20.0 31.0 0.00 0.19 0.01 35 993.8
20260504190222 71 231 16.0 36.0 0.00 0.19 0.01 36 993.8
20260504185750 71 211 19.0 37.0 0.00 0.19 0.01 35 993.7
20260504185237 71 206 23.0 37.0 0.00 0.19 0.01 34 993.8
20260504184741 71 210 25.0 34.0 0.00 0.19 0.01 34 993.7
20260504184248 71 194 16.0 35.0 0.00 0.19 0.01 34 993.8
20260504183735 72 258 23.0 35.0 0.00 0.19 0.01 33 993.7
20260504183222 72 200 17.0 42.0 0.00 0.19 0.01 34 993.6
20260504182730 71 225 23.0 42.0 0.00 0.19 0.01 33 993.6
20260504182245 72 205 25.0 35.0 0.00 0.19 0.01 34 993.5
20260504181731 72 197 19.0 43.0 0.00 0.19 0.01 33 993.5
20260504181246 72 190 29.0 45.0 0.00 0.19 0.01 33 993.9
20260504180747 72 209 23.0 36.0 0.00 0.19 0.01 34 993.6
20260504180235 72 209 19.0 33.0 0.00 0.19 0.01 34 993.7